THORAD AGENA D DEB, 17720

Orbit data source: Space-Track

THORAD AGENA D DEB, 17720 is space debris in SSO originally from a launch on Wed, 08 Apr 1970 UTC launched from the Air Force Western Test Range (AFWTR). Debris objects in space refer to the collection of defunct objects orbiting the Earth. Examples of debris include non-operational satellites, rocket bodies, and fragments generated from explosions, collisions, or faulty payload assembly.

Loading next visibility...
Identifier
17720, 1970-025PJ
Orbit
SSO
Country
Flag of USUS
Related business
Manufacturer
Unknown
Mission
Spacecraft
Bus & Motor
Unknown
Mass
Unknown
Launch date (UTC)
1970-04-08 (56 years ago)
Launch vehicle
Unknown
Launch site
Air Force Western Test Range (AFWTR)
Object type
Payload
Rocket body
Debris
Shape & HBR
Unknown shape, 0.1 m
Radar Cross Section
Medium (>0.1 m² and <1 m²)

Expand to show TLE details & history
Last TLE update: 1 day ago

TLE from 1 day ago
0 THORAD AGENA D DEB
1 17720U 70025PJ  26254.95194535  .00002655  00000-0  11587-2 0  9993
2 17720  99.6064 160.5345 0031063 318.3630  99.7112 14.24635421118207
Epoch: 2026-09-11T22:50Z
TLE epoch observation values (Epoch: 2026-09-11T22:50:48.078Z)
Latitude
57.24095°
Longitude
171.69838°
Altitude
823.097 km
Speed
7.445 km/s
True Right ascension
09h 41m 27s
True Declination
57° 05' 08"
Sunlit
Object was in daylight at epoch
Visualization orbit readout
Latitude
Unknown
Longitude
Unknown
Altitude
Unknown
Speed
Unknown
Apparent Right ascension
Unknown
Apparent Declination
Unknown
Sunlit
N/A
Visualization observer readout
Local Sidereal Time
00:45:55
Azimuth
Unknown
Elevation
Unknown
Doppler factor
Unknown
Orbital elements
Apogee altitude
829.235 km
Perigee altitude
784.597 km
Semi-major axis
7,185.053 km
Eccentricity
0.00311
Inclination
99.6064°
RAAN
160.5345°
Arg. of periapsis
318.363°
True anomaly
100.06182°
Mean anomaly
99.7112°
Eccentric anomaly
99.88653°
Mean motion
3.56368 °/min
Orbital period
101.02 mins
BSTAR
0.0011587
Loading maneuver chart data...
Computing Atmospheric mass density...

Documentation

Showing up to 5 results
|